Location: Plum Point
(34.9795°N, 89.9548°W)
Time: 07:43:12
(UTC+00:00)

Hubble Space Telescope - Visible Passes

Search period start: 12 July 2025 00:00
Search period end: 22 July 2025 00:00
Orbit: 488 x 490 km, 28.5° (Epoch: 11 July)

Date Brightness Start Highest point End Pass type
(mag) Time Alt. Az. Time Alt. Az. Time Alt. Az.
12 Jul 1.9 09:12:34 25° SSE 09:12:34 25° SSE 09:15:03 10° SE visible
13 Jul 3.0 08:47:47 13° SE 08:47:47 13° SE 08:48:17 10° SE visible
13 Jul 2.5 10:22:35 10° SW 10:24:33 14° SSW 10:26:30 10° SSE visible
14 Jul 2.5 09:57:35 13° SSW 09:57:46 13° SSW 09:59:36 10° S visible
19 Jul 2.4 02:42:18 10° SSW 02:43:53 17° S 02:43:53 17° S visible
20 Jul 2.0 02:15:28 10° SW 02:18:18 20° SSE 02:19:06 19° SSE visible
21 Jul 2.1 01:48:37 10° SW 01:51:30 20° SSE 01:54:07 11° ESE visible
21 Jul 3.0 03:27:44 10° WSW 03:28:26 14° SW 03:28:26 14° SW visible
